owner,sensor,date,latitude,longitude,vertical_datum,sea_water_practical_salinity,qcFlag 
DISL,ioos:station:DISL:KATA:1,2017-04-01T00:00:00Z,30.2583,-88.2131,4.046,26.91,1111122 
DISL,ioos:station:DISL:KATA:1,2017-04-01T00:30:00Z,30.2583,-88.2131,4.007,26.89,1111122 
DISL,ioos:station:DISL:KATA:1,2017-04-01T01:00:00Z,30.2583,-88.2131,3.972,26.86,1111122 
DISL,ioos:station:DISL:KATA:1,2017-04-01T01:30:00Z,30.2583,-88.2131,3.953,26.75,1111122 
DISL,ioos:station:DISL:KATA:1,2017-04-01T02:00:00Z,30.2583,-88.2131,3.931,26.61,1111122 
DISL,ioos:station:DISL:KATA:1,2017-04-01T02:30:00Z,30.2583,-88.2131,3.909,26.53,1111122 
DISL,ioos:station:DISL:KATA:1,2017-04-01T03:00:00Z,30.2583,-88.2131,3.897,26.5,1111122 
DISL,ioos:station:DISL:KATA:1,2017-04-01T03:30:00Z,30.2583,-88.2131,3.889,26.41,1111122 
DISL,ioos:station:DISL:KATA:1,2017-04-01T04:00:00Z,30.2583,-88.2131,3.883,26.33,1111122 
DISL,ioos:station:DISL:KATA:1,2017-04-01T04:30:00Z,30.2583,-88.2131,3.878,26.22,1111122 
DISL,ioos:station:DISL:KATA:1,2017-04-01T05:00:00Z,30.2583,-88.2131,3.875,26.05,1111122 
DISL,ioos:station:DISL:KATA:1,2017-04-01T05:30:00Z,30.2583,-88.2131,3.865,26.0,1111122 
DISL,ioos:station:DISL:KATA:1,2017-04-01T06:00:00Z,30.2583,-88.2131,3.865,26.09,1111122 
DISL,ioos:station:DISL:KATA:1,2017-04-01T06:30:00Z,30.2583,-88.2131,3.869,26.13,1111122 
DISL,ioos:station:DISL:KATA:1,2017-04-01T07:00:00Z,30.2583,-88.2131,3.882,26.11,1111122 
DISL,ioos:station:DISL:KATA:1,2017-04-01T07:30:00Z,30.2583,-88.2131,3.906,26.16,1111122 
DISL,ioos:station:DISL:KATA:1,2017-04-01T08:00:00Z,30.2583,-88.2131,3.936,26.23,1111122 
DISL,ioos:station:DISL:KATA:1,2017-04-01T08:30:00Z,30.2583,-88.2131,3.96,26.18,1111122 
DISL,ioos:station:DISL:KATA:1,2017-04-01T09:00:00Z,30.2583,-88.2131,3.995,26.24,1111122 
DISL,ioos:station:DISL:KATA:1,2017-04-01T09:30:00Z,30.2583,-88.2131,4.026,26.21,1111122 
DISL,ioos:station:DISL:KATA:1,2017-04-01T10:00:00Z,30.2583,-88.2131,4.051,26.22,1111122 
DISL,ioos:station:DISL:KATA:1,2017-04-01T10:30:00Z,30.2583,-88.2131,4.069,26.21,1111122 
DISL,ioos:station:DISL:KATA:1,2017-04-01T11:00:00Z,30.2583,-88.2131,4.079,26.26,1111122 
DISL,ioos:station:DISL:KATA:1,2017-04-01T11:30:00Z,30.2583,-88.2131,4.089,26.32,1111122 
DISL,ioos:station:DISL:KATA:1,2017-04-01T12:00:00Z,30.2583,-88.2131,4.087,26.34,1111122 
DISL,ioos:station:DISL:KATA:1,2017-04-01T12:30:00Z,30.2583,-88.2131,4.096,26.38,1111122 
DISL,ioos:station:DISL:KATA:1,2017-04-01T13:00:00Z,30.2583,-88.2131,4.109,26.42,1111122 
DISL,ioos:station:DISL:KATA:1,2017-04-01T13:30:00Z,30.2583,-88.2131,4.132,26.46,1111122 
DISL,ioos:station:DISL:KATA:1,2017-04-01T14:00:00Z,30.2583,-88.2131,4.165,26.21,1111122 
DISL,ioos:station:DISL:KATA:1,2017-04-01T14:30:00Z,30.2583,-88.2131,4.188,26.29,1111122 
DISL,ioos:station:DISL:KATA:1,2017-04-01T15:00:00Z,30.2583,-88.2131,4.23,26.16,1111122 
DISL,ioos:station:DISL:KATA:1,2017-04-01T15:30:00Z,30.2583,-88.2131,4.246,26.24,1111122 
DISL,ioos:station:DISL:KATA:1,2017-04-01T16:00:00Z,30.2583,-88.2131,4.269,26.07,1111122 
DISL,ioos:station:DISL:KATA:1,2017-04-01T16:30:00Z,30.2583,-88.2131,4.285,25.76,1111122 
DISL,ioos:station:DISL:KATA:1,2017-04-01T17:00:00Z,30.2583,-88.2131,4.281,25.78,1111122 
DISL,ioos:station:DISL:KATA:1,2017-04-01T17:30:00Z,30.2583,-88.2131,4.288,25.47,1111122 
DISL,ioos:station:DISL:KATA:1,2017-04-01T18:00:00Z,30.2583,-88.2131,4.285,25.71,1111122 
DISL,ioos:station:DISL:KATA:1,2017-04-01T18:30:00Z,30.2583,-88.2131,4.273,25.49,1111122 
DISL,ioos:station:DISL:KATA:1,2017-04-01T19:00:00Z,30.2583,-88.2131,4.271,25.63,1111122 
DISL,ioos:station:DISL:KATA:1,2017-04-01T19:30:00Z,30.2583,-88.2131,4.253,25.79,1111122 
DISL,ioos:station:DISL:KATA:1,2017-04-01T20:00:00Z,30.2583,-88.2131,4.238,26.11,1111122 
DISL,ioos:station:DISL:KATA:1,2017-04-01T20:30:00Z,30.2583,-88.2131,4.219,26.17,1111122 
DISL,ioos:station:DISL:KATA:1,2017-04-01T21:00:00Z,30.2583,-88.2131,4.203,26.14,1111122 
DISL,ioos:station:DISL:KATA:1,2017-04-01T21:30:00Z,30.2583,-88.2131,4.18,26.26,1111122 
DISL,ioos:station:DISL:KATA:1,2017-04-01T22:00:00Z,30.2583,-88.2131,4.158,26.2,1111122 
DISL,ioos:station:DISL:KATA:1,2017-04-01T22:30:00Z,30.2583,-88.2131,4.139,26.01,1111122 
DISL,ioos:station:DISL:KATA:1,2017-04-01T23:00:00Z,30.2583,-88.2131,4.107,25.91,1111122 
DISL,ioos:station:DISL:KATA:1,2017-04-01T23:30:00Z,30.2583,-88.2131,4.072,25.87,1111122 
DISL,ioos:station:DISL:KATA:1,2017-04-02T00:00:00Z,30.2583,-88.2131,4.041,25.82,1111122 
DISL,ioos:station:DISL:KATA:1,2017-04-02T00:30:00Z,30.2583,-88.2131,4.01,25.75,1111122 
DISL,ioos:station:DISL:KATA:1,2017-04-02T01:00:00Z,30.2583,-88.2131,3.966,25.64,1111122 
DISL,ioos:station:DISL:KATA:1,2017-04-02T01:30:00Z,30.2583,-88.2131,3.923,25.49,1111122 
DISL,ioos:station:DISL:KATA:1,2017-04-02T02:00:00Z,30.2583,-88.2131,3.888,25.32,1111122 
DISL,ioos:station:DISL:KATA:1,2017-04-02T02:30:00Z,30.2583,-88.2131,3.85,25.2,1111122 
DISL,ioos:station:DISL:KATA:1,2017-04-02T03:00:00Z,30.2583,-88.2131,3.823,25.21,1111122 
DISL,ioos:station:DISL:KATA:1,2017-04-02T03:30:00Z,30.2583,-88.2131,3.801,25.04,1111122 
DISL,ioos:station:DISL:KATA:1,2017-04-02T04:00:00Z,30.2583,-88.2131,3.782,24.66,1111122 
DISL,ioos:station:DISL:KATA:1,2017-04-02T04:30:00Z,30.2583,-88.2131,3.771,25.19,1111122 
DISL,ioos:station:DISL:KATA:1,2017-04-02T05:00:00Z,30.2583,-88.2131,3.765,25.44,1111122 
DISL,ioos:station:DISL:KATA:1,2017-04-02T05:30:00Z,30.2583,-88.2131,3.77,25.47,1111122 
DISL,ioos:station:DISL:KATA:1,2017-04-02T06:00:00Z,30.2583,-88.2131,3.775,25.35,1111122 
DISL,ioos:station:DISL:KATA:1,2017-04-02T06:30:00Z,30.2583,-88.2131,3.785,25.65,1111122 
DISL,ioos:station:DISL:KATA:1,2017-04-02T07:00:00Z,30.2583,-88.2131,3.786,26.29,1111122 
DISL,ioos:station:DISL:KATA:1,2017-04-02T07:30:00Z,30.2583,-88.2131,3.796,26.14,1111122 
DISL,ioos:station:DISL:KATA:1,2017-04-02T08:00:00Z,30.2583,-88.2131,3.809,26.15,1111122 
DISL,ioos:station:DISL:KATA:1,2017-04-02T08:30:00Z,30.2583,-88.2131,3.814,26.17,1111122 
DISL,ioos:station:DISL:KATA:1,2017-04-02T09:00:00Z,30.2583,-88.2131,3.835,26.25,1111122 
DISL,ioos:station:DISL:KATA:1,2017-04-02T09:30:00Z,30.2583,-88.2131,3.871,26.5,1111122 
DISL,ioos:station:DISL:KATA:1,2017-04-02T10:00:00Z,30.2583,-88.2131,3.888,26.65,1111122 
DISL,ioos:station:DISL:KATA:1,2017-04-02T10:30:00Z,30.2583,-88.2131,3.91,26.63,1111122 
DISL,ioos:station:DISL:KATA:1,2017-04-02T11:00:00Z,30.2583,-88.2131,3.93,26.52,1111122 
DISL,ioos:station:DISL:KATA:1,2017-04-02T11:30:00Z,30.2583,-88.2131,3.95,26.66,1111122 
DISL,ioos:station:DISL:KATA:1,2017-04-02T12:00:00Z,30.2583,-88.2131,3.978,26.69,1111122 
DISL,ioos:station:DISL:KATA:1,2017-04-02T12:30:00Z,30.2583,-88.2131,4.023,26.52,1111122 
DISL,ioos:station:DISL:KATA:1,2017-04-02T13:00:00Z,30.2583,-88.2131,4.065,26.59,1111122 
DISL,ioos:station:DISL:KATA:1,2017-04-02T13:30:00Z,30.2583,-88.2131,4.102,26.61,1111122 
DISL,ioos:station:DISL:KATA:1,2017-04-02T14:00:00Z,30.2583,-88.2131,4.131,26.63,1111122 
DISL,ioos:station:DISL:KATA:1,2017-04-02T14:30:00Z,30.2583,-88.2131,4.161,26.62,1111122 
DISL,ioos:station:DISL:KATA:1,2017-04-02T15:00:00Z,30.2583,-88.2131,4.19,26.75,1111122 
DISL,ioos:station:DISL:KATA:1,2017-04-02T15:30:00Z,30.2583,-88.2131,4.215,26.85,1111122 
DISL,ioos:station:DISL:KATA:1,2017-04-02T16:00:00Z,30.2583,-88.2131,4.212,26.95,1111122 
DISL,ioos:station:DISL:KATA:1,2017-04-02T16:30:00Z,30.2583,-88.2131,4.214,26.94,1111122 
DISL,ioos:station:DISL:KATA:1,2017-04-02T17:00:00Z,30.2583,-88.2131,4.217,26.94,1111122 
DISL,ioos:station:DISL:KATA:1,2017-04-02T17:30:00Z,30.2583,-88.2131,4.229,26.93,1111122 
DISL,ioos:station:DISL:KATA:1,2017-04-02T18:00:00Z,30.2583,-88.2131,4.224,26.9,1111122 
DISL,ioos:station:DISL:KATA:1,2017-04-02T18:30:00Z,30.2583,-88.2131,4.259,26.82,1111122 
DISL,ioos:station:DISL:KATA:1,2017-04-02T19:00:00Z,30.2583,-88.2131,4.286,26.76,1111122 
DISL,ioos:station:DISL:KATA:1,2017-04-02T19:30:00Z,30.2583,-88.2131,4.311,26.73,1111122 
DISL,ioos:station:DISL:KATA:1,2017-04-02T20:00:00Z,30.2583,-88.2131,4.329,26.69,1111122 
DISL,ioos:station:DISL:KATA:1,2017-04-02T20:30:00Z,30.2583,-88.2131,4.308,26.65,1111122 
DISL,ioos:station:DISL:KATA:1,2017-04-02T21:00:00Z,30.2583,-88.2131,4.292,26.6,1111122 
DISL,ioos:station:DISL:KATA:1,2017-04-02T21:30:00Z,30.2583,-88.2131,4.262,26.57,1111122 
DISL,ioos:station:DISL:KATA:1,2017-04-02T22:00:00Z,30.2583,-88.2131,4.246,26.52,1111122 
DISL,ioos:station:DISL:KATA:1,2017-04-02T22:30:00Z,30.2583,-88.2131,4.219,26.37,1111122 
DISL,ioos:station:DISL:KATA:1,2017-04-02T23:00:00Z,30.2583,-88.2131,4.201,26.01,1111122 
DISL,ioos:station:DISL:KATA:1,2017-04-02T23:30:00Z,30.2583,-88.2131,4.191,25.97,1111122 
DISL,ioos:station:DISL:KATA:1,2017-04-03T00:00:00Z,30.2583,-88.2131,4.166,25.96,1111122 
DISL,ioos:station:DISL:KATA:1,2017-04-03T00:30:00Z,30.2583,-88.2131,4.139,25.78,1111122 
DISL,ioos:station:DISL:KATA:1,2017-04-03T01:00:00Z,30.2583,-88.2131,4.105,25.81,1111122 
DISL,ioos:station:DISL:KATA:1,2017-04-03T01:30:00Z,30.2583,-88.2131,4.069,25.7,1111122 
DISL,ioos:station:DISL:KATA:1,2017-04-03T02:00:00Z,30.2583,-88.2131,4.054,25.72,1111122 
DISL,ioos:station:DISL:KATA:1,2017-04-03T02:30:00Z,30.2583,-88.2131,4.027,25.77,1111122 
DISL,ioos:station:DISL:KATA:1,2017-04-03T03:00:00Z,30.2583,-88.2131,3.993,25.91,1111122 
DISL,ioos:station:DISL:KATA:1,2017-04-03T03:30:00Z,30.2583,-88.2131,3.961,25.78,1111122 
DISL,ioos:station:DISL:KATA:1,2017-04-03T04:00:00Z,30.2583,-88.2131,3.948,25.81,1111122 
DISL,ioos:station:DISL:KATA:1,2017-04-03T04:30:00Z,30.2583,-88.2131,3.952,25.85,1111122 
DISL,ioos:station:DISL:KATA:1,2017-04-03T05:00:00Z,30.2583,-88.2131,3.954,25.85,1111122 
DISL,ioos:station:DISL:KATA:1,2017-04-03T05:30:00Z,30.2583,-88.2131,3.943,25.78,1111122 
DISL,ioos:station:DISL:KATA:1,2017-04-03T06:00:00Z,30.2583,-88.2131,3.948,25.65,1111122 
DISL,ioos:station:DISL:KATA:1,2017-04-03T06:30:00Z,30.2583,-88.2131,3.949,25.76,1111122 
DISL,ioos:station:DISL:KATA:1,2017-04-03T07:00:00Z,30.2583,-88.2131,3.987,25.7,1111122 
DISL,ioos:station:DISL:KATA:1,2017-04-03T07:30:00Z,30.2583,-88.2131,4.023,25.56,1111122 
DISL,ioos:station:DISL:KATA:1,2017-04-03T08:00:00Z,30.2583,-88.2131,4.041,25.76,1111122 
DISL,ioos:station:DISL:KATA:1,2017-04-03T08:30:00Z,30.2583,-88.2131,4.05,26.33,1111122 
DISL,ioos:station:DISL:KATA:1,2017-04-03T09:00:00Z,30.2583,-88.2131,4.039,26.25,1111122 
DISL,ioos:station:DISL:KATA:1,2017-04-03T09:30:00Z,30.2583,-88.2131,4.046,26.17,1111122 
DISL,ioos:station:DISL:KATA:1,2017-04-03T10:00:00Z,30.2583,-88.2131,4.07,26.08,1111122 
DISL,ioos:station:DISL:KATA:1,2017-04-03T10:30:00Z,30.2583,-88.2131,4.092,26.3,1111122 
DISL,ioos:station:DISL:KATA:1,2017-04-03T11:00:00Z,30.2583,-88.2131,4.148,26.31,1111122 
DISL,ioos:station:DISL:KATA:1,2017-04-03T11:30:00Z,30.2583,-88.2131,4.192,26.4,1111122 
DISL,ioos:station:DISL:KATA:1,2017-04-03T12:00:00Z,30.2583,-88.2131,4.233,26.11,1111122 
DISL,ioos:station:DISL:KATA:1,2017-04-03T12:30:00Z,30.2583,-88.2131,4.258,26.37,1111122 
DISL,ioos:station:DISL:KATA:1,2017-04-03T13:00:00Z,30.2583,-88.2131,4.297,26.29,1111122 
DISL,ioos:station:DISL:KATA:1,2017-04-03T13:30:00Z,30.2583,-88.2131,4.313,26.55,1111122 
DISL,ioos:station:DISL:KATA:1,2017-04-03T14:00:00Z,30.2583,-88.2131,4.426,26.51,1111122 
DISL,ioos:station:DISL:KATA:1,2017-04-03T14:30:00Z,30.2583,-88.2131,4.347,26.33,1111122 
DISL,ioos:station:DISL:KATA:1,2017-04-03T15:00:00Z,30.2583,-88.2131,4.369,26.37,1111122 
DISL,ioos:station:DISL:KATA:1,2017-04-03T15:30:00Z,30.2583,-88.2131,4.311,26.0,1111122 
DISL,ioos:station:DISL:KATA:1,2017-04-03T16:00:00Z,30.2583,-88.2131,4.136,25.93,1111122 
DISL,ioos:station:DISL:KATA:1,2017-04-03T16:30:00Z,30.2583,-88.2131,4.075,25.8,1111122 
DISL,ioos:station:DISL:KATA:1,2017-04-03T17:00:00Z,30.2583,-88.2131,4.078,25.6,1111122 
DISL,ioos:station:DISL:KATA:1,2017-04-03T17:30:00Z,30.2583,-88.2131,4.043,24.96,1111122 
DISL,ioos:station:DISL:KATA:1,2017-04-03T18:00:00Z,30.2583,-88.2131,4.095,25.76,1111122 
DISL,ioos:station:DISL:KATA:1,2017-04-03T18:30:00Z,30.2583,-88.2131,4.14,25.78,1111122 
DISL,ioos:station:DISL:KATA:1,2017-04-03T19:00:00Z,30.2583,-88.2131,4.17,25.76,1111122 
DISL,ioos:station:DISL:KATA:1,2017-04-03T19:30:00Z,30.2583,-88.2131,4.245,25.76,1111122 
DISL,ioos:station:DISL:KATA:1,2017-04-03T20:00:00Z,30.2583,-88.2131,4.321,25.81,1111122 
DISL,ioos:station:DISL:KATA:1,2017-04-03T20:30:00Z,30.2583,-88.2131,4.38,25.77,1111122 
DISL,ioos:station:DISL:KATA:1,2017-04-03T21:00:00Z,30.2583,-88.2131,4.407,25.84,1111122 
DISL,ioos:station:DISL:KATA:1,2017-04-03T21:30:00Z,30.2583,-88.2131,4.424,25.87,1111122 
DISL,ioos:station:DISL:KATA:1,2017-04-03T22:00:00Z,30.2583,-88.2131,4.389,25.87,1111122 
DISL,ioos:station:DISL:KATA:1,2017-04-03T22:30:00Z,30.2583,-88.2131,4.336,25.82,1111122 
DISL,ioos:station:DISL:KATA:1,2017-04-03T23:00:00Z,30.2583,-88.2131,4.283,25.79,1111122 
DISL,ioos:station:DISL:KATA:1,2017-04-03T23:30:00Z,30.2583,-88.2131,4.268,25.86,1111122 
DISL,ioos:station:DISL:KATA:1,2017-04-04T00:00:00Z,30.2583,-88.2131,4.263,25.92,1111122 
DISL,ioos:station:DISL:KATA:1,2017-04-04T00:30:00Z,30.2583,-88.2131,4.298,25.94,1111122 
DISL,ioos:station:DISL:KATA:1,2017-04-04T01:00:00Z,30.2583,-88.2131,4.283,25.93,1111122 
DISL,ioos:station:DISL:KATA:1,2017-04-04T01:30:00Z,30.2583,-88.2131,4.267,25.93,1111122 
DISL,ioos:station:DISL:KATA:1,2017-04-04T02:00:00Z,30.2583,-88.2131,4.225,25.89,1111122 
DISL,ioos:station:DISL:KATA:1,2017-04-04T02:30:00Z,30.2583,-88.2131,4.176,25.82,1111122 
DISL,ioos:station:DISL:KATA:1,2017-04-04T03:00:00Z,30.2583,-88.2131,4.12,25.77,1111122 
DISL,ioos:station:DISL:KATA:1,2017-04-04T03:30:00Z,30.2583,-88.2131,4.075,25.72,1111122 
DISL,ioos:station:DISL:KATA:1,2017-04-04T04:00:00Z,30.2583,-88.2131,4.064,25.5,1111122 
DISL,ioos:station:DISL:KATA:1,2017-04-04T04:30:00Z,30.2583,-88.2131,4.034,25.52,1111122 
DISL,ioos:station:DISL:KATA:1,2017-04-04T05:00:00Z,30.2583,-88.2131,4.013,25.35,1111122 
DISL,ioos:station:DISL:KATA:1,2017-04-04T05:30:00Z,30.2583,-88.2131,3.99,25.12,1111122 
DISL,ioos:station:DISL:KATA:1,2017-04-04T06:00:00Z,30.2583,-88.2131,3.962,24.79,1111122 
DISL,ioos:station:DISL:KATA:1,2017-04-04T06:30:00Z,30.2583,-88.2131,3.94,24.61,1111122 
DISL,ioos:station:DISL:KATA:1,2017-04-04T07:00:00Z,30.2583,-88.2131,3.928,24.86,1111122 
DISL,ioos:station:DISL:KATA:1,2017-04-04T07:30:00Z,30.2583,-88.2131,3.937,25.09,1111122 
DISL,ioos:station:DISL:KATA:1,2017-04-04T08:00:00Z,30.2583,-88.2131,3.95,25.15,1111122 
DISL,ioos:station:DISL:KATA:1,2017-04-04T08:30:00Z,30.2583,-88.2131,3.959,25.15,1111122 
DISL,ioos:station:DISL:KATA:1,2017-04-04T09:00:00Z,30.2583,-88.2131,3.965,25.14,1111122 
DISL,ioos:station:DISL:KATA:1,2017-04-04T09:30:00Z,30.2583,-88.2131,3.961,25.15,1111122 
DISL,ioos:station:DISL:KATA:1,2017-04-04T10:00:00Z,30.2583,-88.2131,3.959,25.54,1111122 
DISL,ioos:station:DISL:KATA:1,2017-04-04T10:30:00Z,30.2583,-88.2131,3.955,25.61,1111122 
DISL,ioos:station:DISL:KATA:1,2017-04-04T11:00:00Z,30.2583,-88.2131,3.966,25.61,1111122 
DISL,ioos:station:DISL:KATA:1,2017-04-04T11:30:00Z,30.2583,-88.2131,3.985,25.7,1111122 
DISL,ioos:station:DISL:KATA:1,2017-04-04T12:00:00Z,30.2583,-88.2131,4.011,25.75,1111122 
DISL,ioos:station:DISL:KATA:1,2017-04-04T12:30:00Z,30.2583,-88.2131,4.036,25.77,1111122 
DISL,ioos:station:DISL:KATA:1,2017-04-04T13:00:00Z,30.2583,-88.2131,4.072,25.81,1111122 
DISL,ioos:station:DISL:KATA:1,2017-04-04T13:30:00Z,30.2583,-88.2131,4.089,25.84,1111122 
DISL,ioos:station:DISL:KATA:1,2017-04-04T14:00:00Z,30.2583,-88.2131,4.12,25.84,1111122 
DISL,ioos:station:DISL:KATA:1,2017-04-04T14:30:00Z,30.2583,-88.2131,4.153,25.82,1111122 
DISL,ioos:station:DISL:KATA:1,2017-04-04T15:00:00Z,30.2583,-88.2131,4.174,25.81,1111122 
DISL,ioos:station:DISL:KATA:1,2017-04-04T15:30:00Z,30.2583,-88.2131,4.203,25.87,1111122 
DISL,ioos:station:DISL:KATA:1,2017-04-04T16:00:00Z,30.2583,-88.2131,4.219,25.88,1111122 
DISL,ioos:station:DISL:KATA:1,2017-04-04T16:30:00Z,30.2583,-88.2131,4.228,25.86,1111122 
DISL,ioos:station:DISL:KATA:1,2017-04-04T17:00:00Z,30.2583,-88.2131,4.233,25.93,1111122 
DISL,ioos:station:DISL:KATA:1,2017-04-04T17:30:00Z,30.2583,-88.2131,4.237,25.91,1111122 
DISL,ioos:station:DISL:KATA:1,2017-04-04T18:00:00Z,30.2583,-88.2131,4.246,25.92,1111122 
DISL,ioos:station:DISL:KATA:1,2017-04-04T18:30:00Z,30.2583,-88.2131,4.268,25.86,1111122 
DISL,ioos:station:DISL:KATA:1,2017-04-04T19:00:00Z,30.2583,-88.2131,4.284,25.88,1111122 
DISL,ioos:station:DISL:KATA:1,2017-04-04T19:30:00Z,30.2583,-88.2131,4.305,25.84,1111122 
DISL,ioos:station:DISL:KATA:1,2017-04-04T20:00:00Z,30.2583,-88.2131,4.325,25.85,1111122 
DISL,ioos:station:DISL:KATA:1,2017-04-04T20:30:00Z,30.2583,-88.2131,4.339,25.78,1111122 
DISL,ioos:station:DISL:KATA:1,2017-04-04T21:00:00Z,30.2583,-88.2131,4.333,25.81,1111122 
DISL,ioos:station:DISL:KATA:1,2017-04-04T21:30:00Z,30.2583,-88.2131,4.326,25.78,1111122 
DISL,ioos:station:DISL:KATA:1,2017-04-04T22:00:00Z,30.2583,-88.2131,4.315,25.78,1111122 
DISL,ioos:station:DISL:KATA:1,2017-04-04T22:30:00Z,30.2583,-88.2131,4.314,25.77,1111122 
DISL,ioos:station:DISL:KATA:1,2017-04-04T23:00:00Z,30.2583,-88.2131,4.321,25.76,1111122 
DISL,ioos:station:DISL:KATA:1,2017-04-04T23:30:00Z,30.2583,-88.2131,4.307,25.81,1111122 
DISL,ioos:station:DISL:KATA:1,2017-04-05T00:00:00Z,30.2583,-88.2131,4.302,25.76,1111122 
DISL,ioos:station:DISL:KATA:1,2017-04-05T00:30:00Z,30.2583,-88.2131,4.287,25.78,1111122 
DISL,ioos:station:DISL:KATA:1,2017-04-05T01:00:00Z,30.2583,-88.2131,4.265,25.76,1111122 
DISL,ioos:station:DISL:KATA:1,2017-04-05T01:30:00Z,30.2583,-88.2131,4.245,25.7,1111122 
DISL,ioos:station:DISL:KATA:1,2017-04-05T02:00:00Z,30.2583,-88.2131,4.222,25.69,1111122 
DISL,ioos:station:DISL:KATA:1,2017-04-05T02:30:00Z,30.2583,-88.2131,4.192,25.66,1111122 
DISL,ioos:station:DISL:KATA:1,2017-04-05T03:00:00Z,30.2583,-88.2131,4.178,25.67,1111122 
DISL,ioos:station:DISL:KATA:1,2017-04-05T03:30:00Z,30.2583,-88.2131,4.139,25.32,1111122 
DISL,ioos:station:DISL:KATA:1,2017-04-05T04:00:00Z,30.2583,-88.2131,4.116,25.25,1111122 
DISL,ioos:station:DISL:KATA:1,2017-04-05T04:30:00Z,30.2583,-88.2131,4.092,25.26,1111122 
DISL,ioos:station:DISL:KATA:1,2017-04-05T05:00:00Z,30.2583,-88.2131,4.06,24.86,1111122 
DISL,ioos:station:DISL:KATA:1,2017-04-05T05:30:00Z,30.2583,-88.2131,4.039,25.14,1111122 
DISL,ioos:station:DISL:KATA:1,2017-04-05T06:00:00Z,30.2583,-88.2131,4.012,25.23,1111122 
DISL,ioos:station:DISL:KATA:1,2017-04-05T06:30:00Z,30.2583,-88.2131,3.998,25.27,1111122 
DISL,ioos:station:DISL:KATA:1,2017-04-05T07:00:00Z,30.2583,-88.2131,3.984,25.3,1111122 
DISL,ioos:station:DISL:KATA:1,2017-04-05T07:30:00Z,30.2583,-88.2131,3.965,25.29,1111122 
DISL,ioos:station:DISL:KATA:1,2017-04-05T08:00:00Z,30.2583,-88.2131,3.977,25.36,1111122 
DISL,ioos:station:DISL:KATA:1,2017-04-05T08:30:00Z,30.2583,-88.2131,3.99,25.34,1111122 
DISL,ioos:station:DISL:KATA:1,2017-04-05T09:00:00Z,30.2583,-88.2131,4.012,25.36,1111122 
DISL,ioos:station:DISL:KATA:1,2017-04-05T09:30:00Z,30.2583,-88.2131,4.024,25.33,1111122 
DISL,ioos:station:DISL:KATA:1,2017-04-05T10:00:00Z,30.2583,-88.2131,4.015,25.33,1111122 
DISL,ioos:station:DISL:KATA:1,2017-04-05T10:30:00Z,30.2583,-88.2131,4.022,25.3,1111122 
DISL,ioos:station:DISL:KATA:1,2017-04-05T11:00:00Z,30.2583,-88.2131,4.018,25.26,1111122 
DISL,ioos:station:DISL:KATA:1,2017-04-05T11:30:00Z,30.2583,-88.2131,4.019,25.05,1111122 
DISL,ioos:station:DISL:KATA:1,2017-04-05T12:00:00Z,30.2583,-88.2131,4.069,24.88,1111122 
DISL,ioos:station:DISL:KATA:1,2017-04-05T12:30:00Z,30.2583,-88.2131,4.083,24.78,1111122 
DISL,ioos:station:DISL:KATA:1,2017-04-05T13:00:00Z,30.2583,-88.2131,4.124,24.71,1111122 
DISL,ioos:station:DISL:KATA:1,2017-04-05T13:30:00Z,30.2583,-88.2131,4.143,24.82,1111122 
DISL,ioos:station:DISL:KATA:1,2017-04-05T14:00:00Z,30.2583,-88.2131,4.197,24.84,1111122 
DISL,ioos:station:DISL:KATA:1,2017-04-05T14:30:00Z,30.2583,-88.2131,4.245,24.82,1111122 
DISL,ioos:station:DISL:KATA:1,2017-04-05T15:00:00Z,30.2583,-88.2131,4.297,24.81,1111122 
DISL,ioos:station:DISL:KATA:1,2017-04-05T15:30:00Z,30.2583,-88.2131,4.352,24.57,1111122 
DISL,ioos:station:DISL:KATA:1,2017-04-05T16:00:00Z,30.2583,-88.2131,4.378,24.57,1111122 
DISL,ioos:station:DISL:KATA:1,2017-04-05T16:30:00Z,30.2583,-88.2131,4.386,24.66,1111122 
DISL,ioos:station:DISL:KATA:1,2017-04-05T17:00:00Z,30.2583,-88.2131,4.374,24.69,1111122 
DISL,ioos:station:DISL:KATA:1,2017-04-05T17:30:00Z,30.2583,-88.2131,4.363,24.72,1111122 
DISL,ioos:station:DISL:KATA:1,2017-04-05T18:00:00Z,30.2583,-88.2131,4.34,24.68,1111122 
DISL,ioos:station:DISL:KATA:1,2017-04-05T18:30:00Z,30.2583,-88.2131,4.332,24.62,1111122 
DISL,ioos:station:DISL:KATA:1,2017-04-05T19:00:00Z,30.2583,-88.2131,4.334,24.65,1111122 
DISL,ioos:station:DISL:KATA:1,2017-04-05T19:30:00Z,30.2583,-88.2131,4.328,24.61,1111122 
DISL,ioos:station:DISL:KATA:1,2017-04-05T20:00:00Z,30.2583,-88.2131,4.337,24.58,1111122 
DISL,ioos:station:DISL:KATA:1,2017-04-05T20:30:00Z,30.2583,-88.2131,4.336,24.57,1111122 
DISL,ioos:station:DISL:KATA:1,2017-04-05T21:00:00Z,30.2583,-88.2131,4.349,24.62,1111122 
DISL,ioos:station:DISL:KATA:1,2017-04-05T21:30:00Z,30.2583,-88.2131,4.341,24.6,1111122 
DISL,ioos:station:DISL:KATA:1,2017-04-05T22:00:00Z,30.2583,-88.2131,4.357,24.59,1111122 
DISL,ioos:station:DISL:KATA:1,2017-04-05T22:30:00Z,30.2583,-88.2131,4.359,24.58,1111122 
DISL,ioos:station:DISL:KATA:1,2017-04-05T23:00:00Z,30.2583,-88.2131,4.346,24.58,1111122 
DISL,ioos:station:DISL:KATA:1,2017-04-05T23:30:00Z,30.2583,-88.2131,4.34,24.57,1111122 
DISL,ioos:station:DISL:KATA:1,2017-04-06T00:00:00Z,30.2583,-88.2131,4.341,24.58,1111122 
DISL,ioos:station:DISL:KATA:1,2017-04-06T00:30:00Z,30.2583,-88.2131,4.341,24.56,1111122 
DISL,ioos:station:DISL:KATA:1,2017-04-06T01:00:00Z,30.2583,-88.2131,4.372,24.53,1111122 
DISL,ioos:station:DISL:KATA:1,2017-04-06T01:30:00Z,30.2583,-88.2131,4.416,24.58,1111122 
DISL,ioos:station:DISL:KATA:1,2017-04-06T02:00:00Z,30.2583,-88.2131,4.413,24.46,1111122 
DISL,ioos:station:DISL:KATA:1,2017-04-06T02:30:00Z,30.2583,-88.2131,4.466,24.43,1111122 
DISL,ioos:station:DISL:KATA:1,2017-04-06T03:00:00Z,30.2583,-88.2131,4.382,24.16,1111122 
DISL,ioos:station:DISL:KATA:1,2017-04-06T03:30:00Z,30.2583,-88.2131,4.344,23.98,1111122 
DISL,ioos:station:DISL:KATA:1,2017-04-06T04:00:00Z,30.2583,-88.2131,4.364,23.99,1111122 
DISL,ioos:station:DISL:KATA:1,2017-04-06T04:30:00Z,30.2583,-88.2131,4.207,24.0,1111122 
DISL,ioos:station:DISL:KATA:1,2017-04-06T05:00:00Z,30.2583,-88.2131,4.111,24.06,1111122 
DISL,ioos:station:DISL:KATA:1,2017-04-06T05:30:00Z,30.2583,-88.2131,3.996,23.88,1111122 
DISL,ioos:station:DISL:KATA:1,2017-04-06T06:00:00Z,30.2583,-88.2131,3.928,23.73,1111122 
DISL,ioos:station:DISL:KATA:1,2017-04-06T06:30:00Z,30.2583,-88.2131,3.854,23.61,1111122 
DISL,ioos:station:DISL:KATA:1,2017-04-06T07:00:00Z,30.2583,-88.2131,3.767,23.56,1111122 
DISL,ioos:station:DISL:KATA:1,2017-04-06T07:30:00Z,30.2583,-88.2131,3.754,23.62,1111122 
DISL,ioos:station:DISL:KATA:1,2017-04-06T08:00:00Z,30.2583,-88.2131,3.772,23.73,1111122 
DISL,ioos:station:DISL:KATA:1,2017-04-06T08:30:00Z,30.2583,-88.2131,3.734,23.67,1111122 
DISL,ioos:station:DISL:KATA:1,2017-04-06T09:00:00Z,30.2583,-88.2131,3.631,23.54,1111122 
DISL,ioos:station:DISL:KATA:1,2017-04-06T09:30:00Z,30.2583,-88.2131,3.572,23.26,1111122 
DISL,ioos:station:DISL:KATA:1,2017-04-06T10:00:00Z,30.2583,-88.2131,3.62,23.06,1111122 
DISL,ioos:station:DISL:KATA:1,2017-04-06T10:30:00Z,30.2583,-88.2131,3.649,22.91,1111122 
DISL,ioos:station:DISL:KATA:1,2017-04-06T11:00:00Z,30.2583,-88.2131,3.687,22.94,1111122 
DISL,ioos:station:DISL:KATA:1,2017-04-06T11:30:00Z,30.2583,-88.2131,3.677,23.24,1111122 
DISL,ioos:station:DISL:KATA:1,2017-04-06T12:00:00Z,30.2583,-88.2131,3.724,21.89,1111122 
DISL,ioos:station:DISL:KATA:1,2017-04-06T12:30:00Z,30.2583,-88.2131,3.754,23.71,1111122 
DISL,ioos:station:DISL:KATA:1,2017-04-06T13:00:00Z,30.2583,-88.2131,3.79,23.71,1111122 
DISL,ioos:station:DISL:KATA:1,2017-04-06T13:30:00Z,30.2583,-88.2131,3.831,23.76,1111122 
DISL,ioos:station:DISL:KATA:1,2017-04-06T14:00:00Z,30.2583,-88.2131,3.956,23.73,1111122 